Location: ?????????
(55.6553°N, 38.9075°E)
Time: 00:30:03
(UTC+00:00)

COSMOS 2455 - Pass Details

Date: 18 October 2019
Orbit: 901 x 909 km, 67.1° (Epoch: 14 November)

Event Time Altitude Azimuth Distance (km) Brightness Sun altitude
Exits shadow 02:36:11 16° 256° (WSW) 2,183 4.2 -12.5°
Maximum altitude 02:40:49 49° 326° (NNW) 1,170 3.2 -11.9°
Drops below altitude 10° 02:46:41 10° 41° (NE) 2,605 5.8 -11.0°
Sets 02:49:18 0° 47° (NE) 3,549 6.7 -10.7°
